When you browse on this site, cookies collect data to enhance your experience and personalize the content and advertising you see.
Visit our Privacy Policy to learn more. By continuing to use the site, you agree to this use of cookies and data.
  • In Hungary
  • List of Countries
  • For 7 days
  • Water Temperature
  • Satellite Maps
  • Weather Map
  • News
  • Weather Widgets
  • user-avatar
    Login

    Hourly Weather Morozivske (Proletars'ke)

    Today, 13 December, Thursday

    Time Temperature Precipitation Wind Pressure Humidity
    00:00 -2°C° 0 mm 5 mps 742 mmHg 86%
    01:00 -2°C° 0 mm 5 mps 743 mmHg 86%
    02:00 -2°C° 0 mm 4 mps 743 mmHg 87%
    03:00 -2°C° 0 mm 4 mps 743 mmHg 87%
    04:00 -2°C° 0 mm 4 mps 744 mmHg 88%
    05:00 -2°C° 0 mm 4 mps 744 mmHg 88%
    06:00 -2°C° 0 mm 4 mps 744 mmHg 89%
    07:00 -3°C° 0 mm 4 mps 745 mmHg 89%
    08:00 -3°C° 0 mm 4 mps 745 mmHg 89%
    09:00 -2°C° 0 mm 4 mps 745 mmHg 87%
    10:00 -1°C° 0 mm 5 mps 746 mmHg 85%
    11:00 -1°C° 0 mm 5 mps 746 mmHg 82%
    12:00 -1°C° 0 mm 5 mps 746 mmHg 81%
    13:00 0°C° 0 mm 4 mps 746 mmHg 80%
    14:00 0°C° 0 mm 4 mps 747 mmHg 79%
    15:00 0°C° 0 mm 4 mps 747 mmHg 80%
    16:00 0°C° 0 mm 3 mps 747 mmHg 81%
    17:00 0°C° 0 mm 3 mps 748 mmHg 82%
    18:00 0°C° 0 mm 3 mps 748 mmHg 83%
    19:00 0°C° 0 mm 3 mps 748 mmHg 84%
    20:00 -2°C° 0 mm 4 mps 748 mmHg 84%
    21:00 -2°C° 0 mm 4 mps 748 mmHg 85%
    22:00 -2°C° 0 mm 4 mps 748 mmHg 87%
    23:00 -2°C° 0 mm 4 mps 748 mmHg 88%

    Tomorrow, 14 December, Friday

    Time Temperature Precipitation Wind Pressure Humidity
    00:00 -1°C° 0 mm 3 mps 749 mmHg 89%
    01:00 -1°C° 0 mm 3 mps 749 mmHg 89%
    02:00 -2°C° 0 mm 3 mps 749 mmHg 90%
    03:00 -2°C° 0 mm 3 mps 749 mmHg 90%
    04:00 -1°C° 0 mm 3 mps 749 mmHg 90%
    05:00 -1°C° 0 mm 3 mps 750 mmHg 90%
    06:00 -1°C° 0 mm 3 mps 750 mmHg 90%
    07:00 -1°C° 0 mm 3 mps 750 mmHg 89%
    08:00 -1°C° 0 mm 3 mps 750 mmHg 89%
    09:00 0°C° 0 mm 3 mps 751 mmHg 85%
    10:00 +1°C° 0 mm 3 mps 751 mmHg 81%
    11:00 +2°C° 0 mm 3 mps 751 mmHg 77%
    12:00 +3°C° 0 mm 2 mps 751 mmHg 77%
    13:00 +3°C° 0 mm 2 mps 752 mmHg 77%
    14:00 +3°C° 0 mm 2 mps 752 mmHg 77%
    15:00 +2°C° 0 mm 2 mps 752 mmHg 80%
    16:00 +3°C° 0 mm 1 mps 752 mmHg 82%
    17:00 +2°C° 0 mm 1 mps 752 mmHg 84%
    18:00 +2°C° 0 mm 1 mps 753 mmHg 85%
    19:00 +1°C° 0 mm 1 mps 753 mmHg 86%
    20:00 +1°C° 0 mm 1 mps 753 mmHg 87%
    21:00 +1°C° 0 mm 1 mps 753 mmHg 88%
    22:00 0°C° 0 mm 1 mps 754 mmHg 89%
    23:00 0°C° 0 mm 1 mps 754 mmHg 89%

    Day after tomorrow, 15 December, Saturday

    Time Temperature Precipitation Wind Pressure Humidity
    00:00 0°C° 0 mm 1 mps 754 mmHg 90%
    01:00 0°C° 0 mm 1 mps 754 mmHg 91%
    02:00 -1°C° 0 mm 1 mps 754 mmHg 91%
    03:00 -1°C° 0 mm 1 mps 754 mmHg 91%
    04:00 -1°C° 0 mm 1 mps 754 mmHg 91%
    05:00 -2°C° 0 mm 0 mps 755 mmHg 91%
    06:00 -2°C° 0 mm 0 mps 755 mmHg 90%
    07:00 -2°C° 0 mm 0 mps 755 mmHg 90%
    08:00 -2°C° 0 mm 0 mps 756 mmHg 89%
    09:00 -1°C° 0 mm 0 mps 756 mmHg 84%
    10:00 +1°C° 0 mm 1 mps 756 mmHg 79%
    11:00 +2°C° 0 mm 1 mps 756 mmHg 75%
    12:00 +3°C° 0 mm 1 mps 756 mmHg 74%
    13:00 +3°C° 0 mm 1 mps 756 mmHg 74%
    14:00 +3°C° 0 mm 1 mps 756 mmHg 74%
    15:00 +2°C° 0 mm 1 mps 756 mmHg 78%
    16:00 -1°C° 0 mm 2 mps 756 mmHg 82%
    17:00 -2°C° 0 mm 2 mps 757 mmHg 86%
    18:00 -2°C° 0 mm 2 mps 757 mmHg 87%
    19:00 -2°C° 0 mm 3 mps 757 mmHg 88%
    20:00 -2°C° 0 mm 3 mps 757 mmHg 89%
    21:00 -2°C° 0 mm 3 mps 757 mmHg 89%
    22:00 -2°C° 0 mm 3 mps 757 mmHg 89%
    23:00 -2°C° 0 mm 3 mps 757 mmHg 89%

    16 December, Sunday

    Time Temperature Precipitation Wind Pressure Humidity
    00:00 -2°C° 0 mm 3 mps 757 mmHg 89%
    01:00 -3°C° 0 mm 4 mps 757 mmHg 89%
    02:00 -4°C° 0 mm 4 mps 757 mmHg 89%
    03:00 -4°C° 0 mm 4 mps 757 mmHg 88%
    04:00 -4°C° 0 mm 4 mps 757 mmHg 88%
    05:00 -4°C° 0 mm 4 mps 757 mmHg 88%
    06:00 -5°C° 0 mm 5 mps 757 mmHg 86%
    07:00 -5°C° 0 mm 5 mps 757 mmHg 85%
    08:00 -5°C° 0 mm 5 mps 757 mmHg 83%
    09:00 -5°C° 0 mm 5 mps 757 mmHg 79%
    10:00 -4°C° 0 mm 5 mps 757 mmHg 76%
    11:00 -3°C° 0 mm 6 mps 757 mmHg 72%
    12:00 -3°C° 0 mm 6 mps 756 mmHg 72%
    13:00 -3°C° 0 mm 6 mps 756 mmHg 73%
    14:00 -3°C° 0 mm 6 mps 756 mmHg 73%
    15:00 -3°C° 0 mm 6 mps 756 mmHg 76%
    16:00 -4°C° 0 mm 6 mps 756 mmHg 79%
    17:00 -5°C° 0 mm 6 mps 756 mmHg 81%
    18:00 -5°C° 0 mm 6 mps 755 mmHg 81%
    19:00 -5°C° 0 mm 6 mps 755 mmHg 81%
    20:00 -5°C° 0 mm 6 mps 755 mmHg 82%
    21:00 -5°C° 0 mm 6 mps 755 mmHg 82%
    22:00 -5°C° 0 mm 6 mps 755 mmHg 82%
    23:00 -5°C° 0 mm 6 mps 755 mmHg 82%

    17 December, Monday

    Time Temperature Precipitation Wind Pressure Humidity
    00:00 -6°C° 0 mm 6 mps 755 mmHg 81%
    01:00 -6°C° 0 mm 6 mps 755 mmHg 81%
    02:00 -6°C° 0 mm 6 mps 755 mmHg 81%
    03:00 -6°C° 0 mm 6 mps 754 mmHg 79%
    04:00 -6°C° 0 mm 6 mps 754 mmHg 78%
    05:00 -6°C° 0 mm 6 mps 754 mmHg 77%
    06:00 -6°C° 0 mm 6 mps 754 mmHg 75%
    07:00 -6°C° 0 mm 6 mps 754 mmHg 72%
    08:00 -6°C° 0 mm 6 mps 754 mmHg 70%
    09:00 -5°C° 0 mm 6 mps 754 mmHg 66%
    10:00 -6°C° 0 mm 7 mps 754 mmHg 61%
    11:00 -4°C° 0 mm 7 mps 754 mmHg 57%
    12:00 -4°C° 0 mm 7 mps 753 mmHg 56%
    13:00 -4°C° 0 mm 6 mps 753 mmHg 55%
    14:00 -4°C° 0 mm 6 mps 753 mmHg 54%
    15:00 -4°C° 0 mm 6 mps 753 mmHg 56%
    16:00 -5°C° 0 mm 6 mps 753 mmHg 58%
    17:00 -6°C° 0 mm 6 mps 753 mmHg 60%
    18:00 -6°C° 0 mm 6 mps 753 mmHg 60%
    19:00 -6°C° 0 mm 6 mps 754 mmHg 61%
    20:00 -6°C° 0 mm 6 mps 754 mmHg 61%
    21:00 -8°C° 0 mm 6 mps 754 mmHg 63%
    22:00 -8°C° 0 mm 6 mps 754 mmHg 65%
    23:00 -8°C° 0 mm 6 mps 754 mmHg 66%

    18 December, Tuesday

    Time Temperature Precipitation Wind Pressure Humidity
    00:00 -7°C° 0 mm 5 mps 754 mmHg 68%
    01:00 -7°C° 0 mm 5 mps 754 mmHg 70%
    02:00 -7°C° 0 mm 5 mps 754 mmHg 72%
    03:00 -8°C° 0 mm 5 mps 754 mmHg 73%
    04:00 -8°C° 0 mm 5 mps 754 mmHg 74%
    05:00 -8°C° 0 mm 5 mps 754 mmHg 75%
    06:00 -7°C° 0 mm 5 mps 754 mmHg 75%
    07:00 -7°C° 0 mm 5 mps 754 mmHg 76%
    08:00 -7°C° 0 mm 5 mps 754 mmHg 76%
    09:00 -7°C° 0 mm 5 mps 754 mmHg 75%
    10:00 -6°C° 0 mm 5 mps 754 mmHg 74%
    11:00 -6°C° 0 mm 6 mps 754 mmHg 73%
    12:00 -6°C° 0 mm 5 mps 754 mmHg 73%
    13:00 -6°C° 0 mm 5 mps 754 mmHg 73%
    14:00 -6°C° 0 mm 5 mps 753 mmHg 73%
    15:00 -6°C° 0 mm 5 mps 754 mmHg 74%
    16:00 -6°C° 0 mm 5 mps 754 mmHg 75%
    17:00 -6°C° 0 mm 5 mps 754 mmHg 76%
    18:00 -6°C° 0 mm 5 mps 754 mmHg 77%
    19:00 -6°C° 0 mm 5 mps 754 mmHg 77%
    20:00 -6°C° 0 mm 5 mps 754 mmHg 78%
    21:00 -6°C° 0 mm 5 mps 753 mmHg 78%
    22:00 -6°C° 0 mm 5 mps 753 mmHg 79%
    23:00 -6°C° 0 mm 5 mps 753 mmHg 79%
    Show more